Regional Weather Roundup
Issued by NWS

Home | Current Version | Previous Version | Text Only | Print | Product List | Glossary On
Versions: 1 2 3 4 5 6 7 8 9 10 11 12 13 14 15 16 17 18 19 20 21 22 23 24 25 26 27
000
ASUS46 KSEW 201410
RWRWA

WASHINGTON REGIONAL WEATHER ROUNDUP
NATIONAL WEATHER SERVICE SEATTLE WA
600 AM PST MON NOV 20 2017

NOTE:"FAIR" INDICATES FEW OR NO CLOUDS BELOW 12,000 FEET WITH NO
SIGNIFICANT WEATHER AND/OR OBSTRUCTIONS TO VISIBILITY.

WAZ507-509-555>559-201500-
SEATTLE, TACOMA, EVERETT, AND VICINITY

CITY           SKY/WX    TMP DP  RH WIND       PRES   REMARKS
EVERETT        LGT RAIN  48  47  96 CALM      29.52F FOG
BOEING FIELD   LGT RAIN  47  46  97 CALM      29.51F
RENTON         CLOUDY    46  46 100 CALM      29.50F
SEATAC AIRPORT CLOUDY    49  46  90 SE6       29.50F
JBLM-MCCHORD   CLOUDY    50  50 100 SE10      29.48F
PUYALLUP       LGT RAIN  52  50  93 VRB7G15   29.49F
BREMERTON      RAIN      47  46  97 S5        29.49F
JBLM-FT LEWIS  CLOUDY    50  50 100 SE8       29.47F
TACOMA NARROWS LGT RAIN  48  47  96 CALM      29.49F
$$

WAZ001-503-506-510-514-515-201500-
NORTH INTERIOR

CITY           SKY/WX    TMP DP  RH WIND       PRES   REMARKS
BELLINGHAM     LGT RAIN  40  40 100 N9        29.53F
FRIDAY HARBOR  LGT RAIN  46  46 100 S7        29.54R
EASTSOUND      RAIN      45  45 100 NE8       29.53S
PORT ANGELES   LGT RAIN  45  45 100 SW3       29.55R FOG
EDIZ HOOK      LGT RAIN  46  45  97 NW7       29.54R
PORT TOWNSEND  LGT RAIN  45  45 100 CALM      29.53S
NAS WHIDBEY    LGT RAIN  49  44  83 CALM      29.58S
ARLINGTON      LGT RAIN  45  45 100 NE7       29.53S FOG
BURLINGTON     CLOUDY    43  43 100 NE13      29.54F FOG
$$

WAZ020-022-039-040-504-511-512-201500-
SOUTHWEST INTERIOR

CITY           SKY/WX    TMP DP  RH WIND       PRES   REMARKS
SHELTON        LGT RAIN  45  43  93 N3        29.45F
OLYMPIA        LGT RAIN  49  48  97 SW8       29.48F
CHEHALIS       CLOUDY    48  48 100 S6        29.50F FOG
KELSO          RAIN      51  49  92 SE14G21   29.54F
VANCOUVER      LGT RAIN  50  50 100 SE9       29.57F
SCAPPOOSE, OR  CLOUDY    50  50 100 E5        29.56F
PORTLAND, OR   RAIN      51  50  96 SE18      29.56F FOG
$$

WAZ021-516-517-201500-
WASHINGTON COAST

CITY           SKY/WX    TMP DP  RH WIND       PRES   REMARKS
FORKS          MOCLDY    46  46 100 N3        29.55R
HOQUIAM        LGT RAIN  50  48  93 W9        29.52R FOG
ASTORIA, OR    LGT RAIN  53  52  96 NW20      29.51R FOG
$$

WAZ019-023-024-040-567>569-201500-
CASCADE MOUNTAINS AND COLUMBIA GORGE

CITY           SKY/WX    TMP DP  RH WIND       PRES   REMARKS
STAMPEDE PASS  RAIN      33  32  96 CALM      29.56R VSB 1/2
TROUTDALE, OR  RAIN      47  45  93 E9        29.61F
HOOD RIVER, OR NOT AVBL
THE DALLES, OR LGT RAIN  41  40  96 N3        29.64F FOG
$$

WAZ026-027-041>044-520-521-201500-
EAST SLOPES

CITY           SKY/WX    TMP DP  RH WIND       PRES   REMARKS
OMAK           CLOUDY    39  33  79 CALM      29.65S
WENATCHEE      LGT RAIN  35  35 100 NW7       29.63R VSB 3/4
ELLENSBURG     LGT RAIN  35  33  92 E3        29.62R FOG
YAKIMA         LGT RAIN  40  37  89 CALM      29.62F
SUNNYSIDE ARPT NOT AVBL
YAKIMA TC      LGT RAIN  38  36  91 MISG      29.59F
$$

WAZ028-034-035-201500-
COLUMBIA BASIN

CITY           SKY/WX    TMP DP  RH WIND       PRES   REMARKS
EPHRATA        LGT RAIN  38  33  82 N7        29.62F
MOSES LAKE     LGT RAIN  41  39  93 SE5       29.63F
PASCO          LGT RAIN  44  43  96 E9        29.66F
RICHLAND ARPT  LGT RAIN  45  43  94 E9        29.66F
HERMISTON, OR  LGT RAIN  42  39  89 S7        29.67F
$$

WAZ036>038-201500-
NORTHEAST WASHINGTON

CITY           SKY/WX    TMP DP  RH WIND       PRES   REMARKS
SPOKANE GEIGER FLURRIES  41  40  96 S13       29.66F
SPOKANE FELTS  LGT RAIN  44  40  85 E7        29.68F
FAIRCHILD AFB  LGT RAIN  40  40 100 SE9       29.65S
COEURDALENE,ID LGT RAIN  38  36  92 S8        29.69F
DEER PARK      CLOUDY    39  37  92 CALM      29.67F
$$

WAZ029>033-201500-
SOUTHEAST WASHINGTON

CITY           SKY/WX    TMP DP  RH WIND       PRES   REMARKS
PULLMAN        LGT RAIN  40  36  86 E13       29.73S
LEWISTON, ID   LGT RAIN  45  40  82 E9        29.74R
WALLA WALLA    LGT RAIN  55  43  63 S18G25    29.66F
PENDLETON, OR  LGT RAIN  56  38  50 S7        29.64F
$$




USA.gov is the U.S. government's official web portal to all federal, state and local government web resources and services.